Find Starlink 38018

NORAD ID: 100421 Int'l Des: 2026-192 Owner: SPXS Country: US Constellation: starlink operational

現在のビュー

3D地球を読み込み中...

About Starlink 38018

Starlink 38018 (NORAD 100421) is a starlink constellation satellite launched Aug 21, 2026 by SPXS of US. with a mass of 575.00 kg.

次回通過

Passes for default location (London). Set your location on the main map for personalized predictions.

高度履歴

Loading altitude history...

軌道要素

1 A0421U 26192T 26262.92461115 .00024954 00000-0 45491-3 0 9994
2 A0421 53.1595 309.2799 0001234 86.9617 273.1534 15.49333140 5815
Epoch: Sep 19, 2026 • Age: 18 hours

現在のステータス

高度 436.5 km
遠地点 / 近地点 N/A
速度 7.65 km/s
衛星直下点 -49.83°S, 2.75°W
打ち上げ日 Aug 21, 2026
運用期間 30 days
タイプ internet

技術仕様

分類 Payload
質量 575.00 kg
乾燥質量 530.00 kg
長さ 0.30 m
スパン 29.00 m
形状 ? Box + pan
製造者 SPXS
バスタイプ Starlink V2MO
フェーズステータス In Orbit
所有者/国 SPXS/US

Most Searched